Moose, Wyoming, United States (83012)
Lat: 43.66N, Lon: 110.72W
Wx Zone: WYZ013
Local Info
Past Weather Observations for Sunday, July 20, 2014

NOTE: This archive is for the closest National Weather Service station to Moose. Information may differ from the station used for current weather conditions.

Click here for Long-term Archive

Time Weather Temperature Dewpoint Humidity Pressure Winds Precip Visibility
23:55
Partly Cloudy
64°F / 18°C 46°F / 8°C 52% 30.12 in
(1020 mb)
SW 6.9 mph
(SW 11 kph)
- 10SM
23:35
Mostly Cloudy
66°F / 19°C 45°F / 7°C 46% 30.12 in
(1020 mb)
SSE 8.1 mph
(SSE 13 kph)
- 10SM
23:15
Partly Cloudy
63°F / 17°C 46°F / 8°C 56% 30.12 in
(1020 mb)
SSE 5.8 mph
(SSE 9 kph)
- 7SM
22:55
Partly Cloudy
63°F / 17°C 48°F / 9°C 59% 30.12 in
(1020 mb)
SSW 5.8 mph
(SSW 9 kph)
- 10SM
22:35
Mostly Cloudy
64°F / 18°C 46°F / 8°C 52% 30.12 in
(1020 mb)
SW 4.6 mph
(SW 7 kph)
- 10SM
22:15
Overcast
66°F / 19°C 50°F / 10°C 56% 30.12 in
(1020 mb)
S 5.8 mph
(S 9 kph)
- 10SM
21:55
Overcast
68°F / 20°C 50°F / 10°C 53% 30.09 in
(1019 mb)
Calm - 10SM
21:35
Overcast
66°F / 19°C 54°F / 12°C 64% 30.09 in
(1019 mb)
Calm - 10SM
21:15
Overcast
68°F / 20°C 52°F / 11°C 56% 30.09 in
(1019 mb)
E 4.6 mph
(E 7 kph)
- 10SM
20:55
Overcast
72°F / 22°C 45°F / 7°C 38% 30.09 in
(1019 mb)
Calm - 10SM
20:35
Overcast
72°F / 22°C 45°F / 7°C 38% 30.09 in
(1019 mb)
Calm - 10SM
20:15
Partly Cloudy
72°F / 22°C 43°F / 6°C 36% 30.09 in
(1019 mb)
Calm - 10SM
18:55
Clear
75°F / 24°C 43°F / 6°C 31% 30.09 in
(1019 mb)
SSW 4.6 mph
(SSW 7 kph)
-
17:55
Clear
79°F / 26°C 39°F / 4°C 24% 30.06 in
(1018 mb)
SW 5.8 mph
(SW 9 kph)
- 10SM
16:55
Clear
82°F / 28°C 36°F / 2°C 19% 30.06 in
(1018 mb)
Calm - 10SM
15:55
Clear
82°F / 28°C 34°F / 1°C 17% 30.09 in
(1019 mb)
Calm - 10SM
14:55
Clear
84°F / 29°C 36°F / 2°C 18% 30.09 in
(1019 mb)
Calm - 10SM
12:55
Clear
82°F / 28°C 37°F / 3°C 20% 30.12 in
(1020 mb)
SSE 16.1 mph
(SSE 26 kph)
- 10SM
11:55
Clear
81°F / 27°C 37°F / 3°C 21% 30.12 in
(1020 mb)
SSE 15 mph
(SSE 24 kph)
- 10SM
10:35
Clear
79°F / 26°C 36°F / 2°C 21% 30.15 in
(1021 mb)
SSE 13.8 mph
(SSE 22 kph)
- 10SM
07:58
Clear
64°F / 18°C 43°F / 6°C 46% 30.15 in
(1021 mb)
Calm - 10SM
06:58
Clear
59°F / 15°C 37°F / 3°C 45% 30.15 in
(1021 mb)
Calm - 10SM
05:51
Clear
54°F / 12°C 36°F / 2°C 51% 30.15 in
(1021 mb)
Calm - 10SM
Time Weather Temperature Dewpoint Humidity Pressure Winds Precip Visibility


Weather for websites

WeatherForYou.com, LLC is not responsible for any damages or problems caused by this service. Current weather conditions are obtained from the closest station including government and personal stations which may have varying degrees of accuracy. Weather forecasts are derived from the NOAA NDFD. Like all things, this site belongs to Jesus Christ... He just trusts me to maintain it. If you have any questions or comments email webmaster@weatherforyou.com

Copyright © 2014, WeatherForYou.com LLC. All rights reserved.